#timestamp,LO_Frequency,Hit,StdDev 
1514840415.9,286047009.0,N
1514840435.7,286047006.0,N
1514840455.5,286047001.9,N
1514840475.4,286046998.8,N
1514840495.2,286046999.5,N
1514840515.0,286046997.2,N
1514840516.0,286046997.2,N
1514840535.8,286047000.3,N
1514840555.6,286046998.3,N
1514840575.4,286046997.2,N
1514840595.3,286046995.9,N
1514840615.1,286046995.0,N
1514840635.8,286046995.5,N
1514840655.7,286046992.1,N
1514840675.5,286046994.5,N
1514840695.3,286046992.6,N
1514840715.2,286046995.6,N
1514840735.9,286046995.4,N
1514840755.7,286047001.0,N
1514840775.6,286047000.6,N
1514840795.4,286046997.0,N
1514840815.2,286047001.1,N
1514840835.0,286047000.7,N
1514840835.9,286047000.7,N
1514840855.8,286047000.7,N
1514840875.6,286047002.8,N
1514840895.4,286047003.7,N
1514840915.3,286047003.3,N
1514840935.1,286047007.5,N
1514840936.0,286047007.5,N
1514840955.8,286047007.9,N
1514840975.7,286047010.1,N
1514840995.5,286047012.0,N
1514841015.3,286047011.3,N
1514841035.2,286047011.5,N
1514841055.9,286047011.7,N
1514841075.7,286047011.7,N
1514841095.5,286047011.7,N
1514841115.4,286047013.9,N
1514841135.2,286047009.6,N
1514841155.1,286047010.7,N
1514841156.0,286047010.7,N
1514841175.8,286047011.6,N
1514841195.6,286047008.2,N
1514841215.5,286047011.1,N
1514841235.3,286047011.9,N
1514841255.1,286047013.3,N
1514841275.8,286047014.3,N
1514841295.7,286047013.9,N
1514841315.5,286047016.8,Y
1514841335.3,286047006.4,P
1514841355.2,286047008.7,P
1514841375.0,286047007.9,P
1514841375.9,286047007.9,Y
1514841395.8,286047004.3,P
1514841415.6,286047003.1,N
1514841435.4,286047002.3,N
1514841455.2,286047004.2,N
1514841475.1,286047003.3,N
1514841476.0,286047003.3,N
1514841495.8,286047002.3,N
1514841515.6,286047000.5,N
1514841535.5,286047002.7,N
1514841555.3,286046996.6,N
1514841575.1,286046993.5,N
1514841595.9,286046996.4,N
1514841615.7,286046992.5,N
1514841635.5,286046994.5,N
1514841655.4,286046994.5,N
1514841675.2,286046991.3,N
1514841695.0,286046989.3,N
1514841695.9,286046989.3,N
1514841715.8,286046988.7,N
1514841735.6,286046991.1,N
1514841755.4,286046989.9,N
1514841775.2,286046985.5,N
1514841795.1,286046988.3,N
1514841796.0,286046988.3,N
1514841815.8,286046985.5,N
1514841835.6,286046983.1,N
1514841855.5,286046979.8,N
1514841875.3,286046979.9,N
1514841895.1,286046979.4,N
1514841915.9,286046979.0,N
1514841935.7,286046982.2,N
1514841955.5,286046981.1,N
1514841975.4,286046985.1,N
1514841995.2,286046978.0,N
1514842015.0,286046978.1,N
1514842015.9,286046978.1,N
1514842035.8,286046977.9,Y
1514842055.6,286046987.6,P
1514842075.4,286046987.7,P
1514842095.2,286046983.7,P
1514842115.1,286046984.0,Y
1514842116.0,286046984.0,P
1514842135.8,286047001.1,N
1514842155.7,286046998.3,N
1514842175.5,286046998.4,N
1514842195.3,286047000.0,N
1514842215.1,286047000.3,N
1514842235.9,286046998.3,N
1514842255.7,286046998.1,N
1514842275.5,286046999.0,N
1514842295.4,286046999.3,N
1514842315.2,286046998.1,N
1514842335.0,286047001.7,N
1514842335.9,286047001.7,N
1514842355.8,286046999.0,N
1514842375.6,286046994.9,N
1514842395.4,286046997.7,N
1514842415.3,286046997.1,N
1514842435.1,286046998.4,N
1514842436.0,286046998.4,N
1514842455.8,286046997.7,N
1514842475.6,286046998.0,N
1514842495.5,286046996.4,N
1514842515.3,286046993.5,N
1514842535.1,286046994.4,N
1514842555.9,286046996.0,N
1514842575.7,286046993.2,N
1514842595.5,286046991.2,N
1514842615.4,286046988.1,N
1514842635.2,286046992.6,N
1514842655.0,286046989.0,N
1514842655.9,286046989.0,N
1514842675.8,286046992.5,N
1514842695.6,286046994.7,N
1514842715.4,286046994.8,N
1514842735.3,286046992.8,N
1514842755.1,286046992.5,N
1514842756.0,286046992.5,N
1514842775.8,286046994.5,N
1514842795.6,286046996.7,N
1514842815.5,286046996.6,N
1514842835.3,286046998.1,N
1514842855.1,286047000.8,N
1514842875.9,286047002.9,N
1514842895.7,286047007.2,N
1514842915.5,286047005.1,N
1514842935.4,286047001.6,N
1514842955.2,286046998.4,N
1514842975.0,286046997.4,N
1514842975.9,286046997.4,N
1514842995.8,286046995.8,N
1514843015.6,286046997.6,N
1514843035.4,286046996.1,N
1514843055.3,286046996.0,N
1514843075.1,286046993.7,N
1514843076.0,286046993.7,N
1514843095.8,286046995.6,N
1514843115.7,286046996.2,N
1514843135.5,286046996.1,N
1514843155.3,286046995.7,N
1514843175.2,286046993.6,N
1514843195.9,286046994.5,N
1514843215.7,286046990.2,N
1514843235.5,286046991.7,N
1514843255.4,286046997.5,N
1514843275.2,286046992.1,N
1514843295.0,286046990.8,N
1514843295.9,286046990.8,N
1514843315.8,286046988.8,N
1514843335.6,286046987.0,Y
1514843355.4,286046990.8,P
1514843375.3,286046988.5,P
1514843395.1,286046993.2,N
1514843415.8,286046989.6,Y
1514843435.7,286046994.3,P
1514843455.5,286046994.6,P
1514843475.3,286046991.7,P
1514843495.2,286046996.0,Y
1514843515.0,286047002.0,P
1514843515.9,286047002.0,N
1514843535.7,286047004.8,N
1514843555.6,286047004.0,N
1514843575.4,286047004.8,N
1514843595.2,286047005.2,N
1514843615.1,286047001.3,N
1514843616.0,286047001.3,N
1514843635.8,286047000.0,N
1514843655.6,286046998.7,N
1514843675.5,286046997.6,N
1514843695.3,286046993.3,N
1514843715.1,286046995.0,N
1514843735.9,286046995.5,N
1514843755.7,286047000.8,N
1514843775.5,286047003.2,N
1514843795.4,286047003.4,N
1514843815.2,286046998.3,N
1514843835.0,286047002.4,N
1514843835.9,286047002.4,N
1514843855.8,286047002.3,N
1514843875.6,286047003.7,N
1514843895.4,286047002.4,N
1514843915.2,286047001.8,N
1514843935.1,286047005.7,N
1514843936.0,286047005.7,N
1514843955.8,286047010.7,Y
1514843975.6,286047011.0,P
1514843995.5,286047013.9,N
